Find Starlink 32267

NORAD ID: 60363 Int'l Des: 2024-138 Owner: SPXS Country: US Constellation: starlink operational
LEOCIRCULAR

現在のビュー

3D地球を読み込み中...

About Starlink 32267

Starlink 32267 (NORAD 60363) is a starlink constellation satellite (v2 mini) launched Aug 4, 2024 by SPXS of US. It operates in LEO, CIRCULAR orbit with a mass of 730.00 kg.

Starlink 32267について

説明を読み込み中...

次回通過

Passes for default location (London). Set your location on the main map for personalized predictions.

高度履歴

Loading altitude history...

軌道要素

1 60363U 24138J 26175.27625056 .00001207 00000-0 52868-4 0 9993
2 60363 53.1588 174.7215 0001094 84.9184 275.1942 15.30192037106946
Epoch: Jun 24, 2026 • Age: 24 hours

現在のステータス

高度 477.2 km
速度 7.63 km/s
衛星直下点 -5.66°S, 23.54°W
打ち上げ日 Aug 4, 2024
運用期間 1.8 years
タイプ internet

技術仕様

分類 Payload
質量 730.00 kg
乾燥質量 700.00 kg
総質量 730.00 kg
長さ 0.30 m
直径 4.10 m
スパン 29.00 m
形状 Box + pan
製造者 SPXS
バスタイプ Starlink V2M
フェーズステータス In Orbit
所有者/国 SPXS/US

Most Searched